INTELSAT 17 (IS-17) (37238 NORAD) Tracking and Keplerian Element Data

This shows tracking and keplerian element data for the satellite.

Feedback or suggestion? Click here.




ElementValue
Catalog37238
NameINTELSAT 17 (IS-17)
Epoch Orbit3962
Epoch Day269.13062201
Epoch Year2021
RAAN198.2327
Inclination0.019
Eccentricity0.0003398
Argument of Perigee3.9397
Mean Anonmoly276.0273
Mean Motion1.00272979
Decay Rate-4E-08
L11 37238U 10065B 21269.13062201 -.00000004 00000-0 00000+0 0 9994
L22 37238 0.0190 198.2327 0003398 3.9397 276.0273 1.00272979 39625

Live tracking and technical data element details for INTELSAT 17 (IS-17) (NORAD 37238). INTELSAT 17 (IS-17) can be tracked NOW for your location showing map with azimuth and elevation plus other details from your city location.

Track the satellite on the map from your city or location and see movement details for azimuth, elevation, latitude, longitude, range, height, and movement on the map or in text.







IsCatalogInMostPopularTable: catalog: 37238, numindb: 546
Update: records affected: 1



GetName: 37238 INTELSAT 17 (IS-17)

Hit Count: updated at: Mon, 27 Sep 2021 00:00:17 GMT